Presure
329 326 327 327 325 314 311 313 310 314 310 309 311 318 352 340 342 342 343 340 333 323 311 327 324 317 310 307 310 291 265 274 282 280 279 272 284 280 273 269 280 262 257 247 248 246 237 243 241 238 241 243 242 244
321 315 313 316 310 309 319 321 316 310 312 304 303 310 310 345 331 351 397 340 324 319 315 312 308 308 302 323 286 273 284 282 280 275 268 263 281 268 264 268 258 256 251 242 240 242 243 240 239 236 243 243 248 254
308 310 308 309 318 318 320 318 312 306 298 303 306 304 339 346 344 334 331 324 323 315 307 307 308 295 289 285 283 279 277 277 269 261 267 277 272 263 259 253 248 246 247 244 240 238 239 240 243 242 248 253 265 279
306 307 313 321 365 358 343 355 308 315 309 306 294 340 345 330 323 320 321 317 311 308 296 293 286 278 276 276 275 273 268 266 261 278 283 277 270 259 253 250 247 242 246 243 242 244 246 247 247 246 257 265 283 291
309 325 337 347 348 380 344 323 327 318 316 295 344 345 325 320 317 313 312 301 295 285 280 276 276 274 271 267 265 262 260 289 287 281 274 264 266 255 247 247 241 243 244 242 244 245 248 245 247 258 268 283 281 292
337 335 331 336 325 319 320 317 312 321 293 355 342 326 319 314 306 299 289 285 280 278 276 272 270 269 269 272 282 281 267 276 269 279 272 263 261 254 248 250 250 242 243 243 241 244 245 255 263 269 278 272 292 288
331 332 331 325 324 320 311 309 344 294 339 332 322 311 303 298 291 283 278 272 270 268 266 267 259 271 267 268 271 268 271 279 266 262 258 254 251 252 250 248 250 246 246 247 250 259 256 261 267 275 270 280 282 275
325 326 320 325 319 328 302 329 296 328 326 319 303 296 294 283 279 271 267 267 267 266 266 279 287 276 268 264 265 269 272 267 261 260 258 260 256 252 249 247 252 255 256 254 255 259 261 269 272 276 262 274 276 271
325 320 337 324 310 319 325 333 353 327 315 297 296 292 281 274 271 265 267 264 262 263 269 274 279 264 267 265 263 259 259 256 259 253 254 252 251 249 258 258 254 252 255 260 264 267 273 269 278 259 268 273 268 273
323 334 322 314 321 317 344 333 317 310 303 295 292 282 273 270 267 266 262 258 263 257 261 264 276 264 257 264 264 257 257 259 257 259 258 257 256 253 254 256 260 265 270 272 269 267 274 280 261 268 269 267 262 304
328 329 318 312 317 344 326 314 305 301 291 290 280 273 272 267 262 255 255 257 252 268 275 274 266 263 263 262 262 258 254 250 252 256 252 253 255 258 261 265 267 269 272 276 280 282 280 267 270 269 269 273 261 312
331 305 324 319 337 317 311 301 300 292 281 277 275 267 261 258 255 253 253 255 270 266 262 260 258 252 256 252 250 252 251 253 253 256 256 258 263 266 270 275 279 284 282 280 279 271 274 274 275 275 271 264 265 311
325 327 314 320 320 307 304 297 288 281 280 276 270 268 262 250 252 250 248 266 266 262 262 256 257 255 254 256 254 259 257 260 262 263 265 270 278 283 277 280 294 305 447 428 320 306 298 290 285 274 270 275 317 303
319 318 314 317 306 307 298 284 281 278 269 268 258 253 253 253 250 252 260 261 260 263 259 260 261 259 256 256 254 256 257 260 266 273 280 280 277 285 303 419 461 455 446 439 423 401 380 368 353 336 330 317 302 296
310 303 309 305 301 290 283 276 278 276 266 260 256 251 254 250 249 253 257 262 260 259 257 257 252 249 251 255 258 263 271 272 272 267 273 279 325 362 356 366 391 405 407 401 384 369 355 340 336 315 313 326 300 290
305 303 303 296 286 283 280 273 267 264 261 258 257 257 246 249 252 256 259 262 263 259 257 261 257 252 261 270 272 272 269 265 266 269 276 330 366 340 329 352 346 355 362 358 351 345 331 343 313 304 304 304 314 291
297 299 293 287 284 280 276 273 266 260 259 258 259 252 249 254 255 271 262 257 258 257 256 258 264 271 270 271 267 262 262 259 269 287 359 351 338 346 326 312 328 345 337 335 336 324 330 330 303 299 298 297 294 296
295 294 290 285 281 278 271 267 265 262 258 257 256 248 252 249 269 273 267 267 263 263 270 274 269 269 260 258 259 264 256 270 273 363 350 333 324 329 330 330 318 307 317 327 322 328 328 324 307 299 299 298 276 264
291 293 288 284 279 275 269 263 263 262 257 254 248 248 250 250 249 249 250 265 268 264 261 261 258 256 256 253 261 257 266 267 295 353 326 322 318 312 324 322 321 323 323 317 311 300 305 320 325 304 290 296 283 281
289 286 284 282 277 273 270 267 263 257 259 251 247 248 247 249 249 249 248 253 258 258 257 254 253 253 251 255 260 260 267 277 359 352 329 315 307 320 310 309 310 304 304 312 318 322 337 352 369 302 312 281 291 300
290 282 281 282 275 273 270 266 262 257 258 254 251 247 249 250 249 251 251 248 247 248 251 254 255 253 257 254 261 263 269 285 351 350 336 325 303 308 308 295 302 299 300 299 298 301 307 313 321 324 319 309 291 271
288 283 280 283 274 273 271 267 263 260 261 259 256 251 250 251 251 250 249 250 252 252 252 251 253 257 256 256 262 262 271 283 306 349 341 342 311 301 307 299 301 299 292 288 287 286 285 284 283 277 269 258 249 247
295 287 280 285 280 277 268 270 266 261 261 257 256 256 254 253 251 250 252 252 252 251 253 256 260 261 257 262 265 270 273 284 304 346 339 339 310 319 300 301 299 291 285 277 277 272 267 260 257 253 254 246 242 250
294 291 288 287 281 278 277 272 270 265 264 262 262 261 260 258 257 254 253 254 255 256 259 260 262 262 263 262 271 271 274 290 301 300 335 334 314 314 303 300 292 286 276 273 265 264 257 255 252 251 255 246 240 240
296 297 293 288 289 283 278 274 273 272 271 266 263 261 258 260 262 262 262 261 262 263 262 262 263 266 269 272 273 278 286 293 297 299 319 328 329 315 304 302 290 279 265 267 255 264 257 252 249 248 251 241 245 240
304 291 297 299 288 285 285 279 279 276 274 272 273 273 272 271 269 269 267 268 270 270 271 272 273 275 275 280 284 283 294 292 300 305 302 333 321 327 303 306 292 278 269 270 261 262 259 254 252 247 248 241 240 242
307 304 299 290 297 292 291 289 287 283 279 278 277 276 277 275 273 275 274 274 275 276 280 282 282 284 285 284 293 301 295 298 305 309 306 326 331 313 324 309 303 284 269 265 263 263 261 251 255 251 246 247 245 241
316 312 311 285 295 283 296 297 297 286 283 286 288 284 283 284 283 284 285 286 287 288 287 287 287 290 296 302 300 301 306 308 313 321 323 329 331 322 309 319 326 300 278 269 268 265 258 256 254 253 252 251 251 250
298 307 308 326 320 306 308 303 294 296 301 296 291 291 291 292 291 290 291 294 296 298 302 304 308 306 305 311 317 321 343 348 345 336 333 329 327 323 316 312 317 323 310 289 272 269 269 268 258 255 252 250 248 251
351 348 348 340 335 332 332 332 327 319 317 315 315 315 313 309 309 307 310 315 315 313 311 312 317 318 330 344 346 340 336 335 331 328 324 331 321 316 323 322 311 317 319 312 304 287 273 273 269 263 260 258 258 258
346 348 348 349 352 355 349 345 343 340 336 333 330 326 325 323 322 320 321 321 322 319 324 328 332 338 337 328 322 317 314 317 316 313 314 328 325 314 325 320 317 314 311 310 303 300 295 279 283 270 265 263 262 262
331 329 331 332 336 335 334 335 335 335 336 336 336 338 336 331 328 328 332 331 328 322 325 332 327 322 319 314 311 308 306 311 329 333 331 330 331 318 322 325 309 311 312 306 300 304 304 298 283 284 276 269 267 266
307 314 320 324 329 330 336 336 332 331 333 331 332 335 335 335 331 333 338 339 340 339 337 325 318 313 310 311 307 307 307 310 325 330 339 338 332 326 324 323 315 310 310 306 299 300 307 308 298 289 286 283 278 274
Wind_Speed
25 25 25 27 29 30 31 30 30 29 30 27 23 20 39 34 32 29 30 28 33 31 32 27 30 31 32 32 30 34 38 34 33 34 33 30 28 28 28 26 23 20 19 21 20 20 27 23 25 29 33 35 39 42
25 25 26 28 29 28 27 28 28 30 29 26 23 22 23 21 21 21 29 39 41 42 37 34 34 32 31 25 35 36 31 32 34 33 30 28 27 30 27 23 22 21 21 23 25 25 25 27 29 30 35 39 44 47
27 26 26 26 24 24 26 28 30 30 29 27 26 24 18 20 31 37 41 42 40 39 37 35 33 33 33 34 35 34 32 32 33 32 31 30 31 30 27 25 23 23 24 27 29 27 28 29 31 34 39 41 44 45
28 27 24 23 26 29 30 31 30 32 30 28 26 25 29 36 39 40 39 39 42 41 39 37 37 36 36 34 32 32 32 31 30 30 30 29 32 30 28 25 27 28 29 30 30 32 34 35 35 34 39 40 44 36
27 29 30 32 31 31 34 34 34 34 31 28 25 33 38 40 40 39 42 43 42 40 39 38 38 35 33 33 30 29 29 26 27 28 30 30 32 32 29 28 30 30 30 31 31 32 34 33 34 39 40 38 33 27
38 39 35 36 37 36 35 35 34 34 30 27 38 41 42 44 45 47 45 44 42 39 36 32 32 31 30 28 26 24 24 26 26 25 32 33 31 30 30 32 32 32 32 32 31 33 33 38 40 38 35 31 26 22
41 41 39 35 36 36 35 34 32 32 31 39 41 43 46 47 46 45 43 41 39 38 35 32 30 28 28 26 25 24 23 25 28 28 30 30 30 29 30 33 33 32 34 34 37 40 37 39 37 33 29 28 24 21
40 38 34 33 33 31 36 30 35 34 40 43 48 48 48 47 46 43 41 39 37 35 31 27 29 28 25 24 24 23 24 27 28 27 28 30 31 30 31 31 34 35 37 38 39 40 37 37 33 29 28 26 23 22
40 37 37 35 37 32 30 31 35 44 48 50 50 50 48 46 44 42 39 35 31 30 29 28 28 29 27 25 26 26 26 25 27 27 28 27 28 30 33 33 34 35 39 41 41 39 40 34 33 31 29 25 25 24
37 37 40 41 35 36 33 41 46 50 52 50 50 49 47 44 40 37 34 32 30 27 26 25 28 29 27 26 26 26 26 27 28 28 28 28 30 32 33 35 38 41 42 42 39 37 38 38 32 31 31 28 28 32
37 40 43 43 39 33 43 48 48 50 45 45 45 44 40 38 35 34 32 29 26 25 25 25 26 24 23 24 25 24 21 21 22 26 28 30 33 35 38 39 39 41 41 43 43 42 39 35 34 33 32 31 29 38
37 42 39 41 35 45 48 48 48 48 48 48 46 43 40 37 34 30 28 26 27 27 26 25 24 21 22 20 20 21 22 25 26 30 31 33 36 37 39 42 45 46 44 42 42 40 40 38 37 36 35 33 32 36
38 37 43 43 46 51 51 50 50 48 46 43 41 40 37 32 30 29 28 28 29 27 26 23 24 22 21 22 21 25 26 28 29 30 32 35 38 41 40 41 44 48 27 33 56 54 50 44 41 38 36 36 33 34
40 42 44 45 49 47 46 47 47 44 41 40 38 35 33 33 32 31 28 25 24 25 22 20 21 20 20 23 24 24 24 27 29 32 34 34 35 38 39 19 8 5 13 21 29 34 36 34 33 34 32 35 37 36
44 45 45 46 47 48 49 48 46 44 42 40 38 36 35 33 29 26 25 26 24 22 21 21 19 21 22 23 23 25 27 27 27 28 29 32 29 18 19 15 13 10 12 19 27 31 32 33 37 35 33 33 40 38
44 44 46 48 48 47 46 45 43 42 41 40 39 37 34 31 28 26 24 23 22 20 19 20 21 22 23 24 24 23 24 24 25 27 30 26 11 12 13 6 3 5 10 16 23 27 31 31 37 34 33 31 35 37
44 45 47 47 47 45 44 44 44 43 41 40 37 35 29 26 24 27 23 21 22 21 21 21 22 23 21 21 21 22 22 22 27 32 14 11 9 7 8 8 3 5 9 12 17 23 28 39 36 34 32 29 29 29
43 44 45 46 44 43 42 40 38 37 36 33 30 27 25 24 23 25 23 24 22 22 24 24 21 20 20 20 21 21 21 26 29 11 9 9 6 6 5 5 7 7 7 11 14 17 22 39 38 36 35 32 29 30
42 42 43 44 43 42 41 41 40 38 36 34 32 30 27 25 24 23 21 21 21 21 20 20 20 20 20 20 21 20 24 25 28 9 10 9 5 4 4 6 6 6 6 8 11 16 18 24 37 35 27 26 26 27
41 40 41 41 41 40 39 39 37 34 32 31 30 28 26 25 25 24 23 21 21 21 21 20 21 21 22 21 22 21 25 26 10 9 10 10 7 8 9 9 9 8 6 2 5 5 7 13 20 25 28 26 26 26
42 41 40 40 40 40 38 38 36 34 33 33 32 30 28 26 25 24 24 24 24 23 23 23 23 24 24 23 24 25 25 26 11 10 12 18 12 14 14 13 12 12 10 14 14 13 13 14 15 17 19 22 25 26
42 41 40 41 40 39 38 37 36 34 34 33 32 31 30 28 28 27 27 27 26 26 26 26 27 27 26 25 26 26 27 26 23 11 11 19 15 17 18 17 14 17 23 24 23 23 23 23 24 24 23 20 18 18
42 41 39 40 40 40 39 38 37 36 35 34 33 33 32 31 31 30 30 30 30 30 30 31 31 30 29 29 29 29 28 28 23 12 11 16 19 22 22 21 21 28 29 28 27 25 23 21 20 19 20 19 20 20
39 40 40 40 39 39 39 38 38 37 37 36 35 35 35 35 35 34 35 34 34 34 34 35 34 34 34 32 32 31 31 28 24 20 14 17 23 25 27 26 31 33 31 30 26 26 23 21 21 22 22 22 23 25
34 36 38 37 38 38 37 37 36 36 36 37 37 37 37 37 37 38 38 38 38 38 37 38 38 37 37 37 35 35 34 29 26 24 19 20 25 30 29 32 36 37 29 30 26 29 27 24 25 25 25 26 27 28
36 30 32 36 35 35 37 36 37 38 38 38 39 39 40 40 40 41 41 41 41 41 40 40 40 41 41 40 38 36 35 33 30 27 26 24 25 30 33 35 41 39 33 35 32 32 31 29 29 30 30 31 32 33
35 35 34 32 34 35 37 38 39 40 40 40 40 40 40 41 41 42 42 43 43 43 43 42 41 41 41 41 41 38 36 36 34 31 29 27 30 30 32 39 42 43 40 37 36 36 36 33 34 34 34 36 36 37
34 33 35 35 37 38 38 39 41 42 42 43 43 43 43 43 44 44 45 45 44 43 43 43 43 44 44 41 40 39 38 36 35 34 31 30 30 33 33 34 37 46 44 43 43 41 39 39 38 38 38 39 40 41
27 32 34 37 39 39 41 42 41 42 42 44 42 42 43 43 44 45 45 45 44 44 44 44 42 41 41 40 38 37 32 30 30 31 31 30 30 31 33 33 33 35 45 49 46 45 46 46 43 42 41 40 41 43
24 27 30 33 35 36 38 38 38 39 40 39 39 39 40 41 41 41 40 40 39 39 39 39 37 37 34 28 23 21 20 20 21 23 24 28 28 29 30 32 33 33 35 42 47 50 48 47 46 45 46 47 48 49
15 16 18 20 22 23 25 27 27 29 30 31 31 33 34 33 35 35 35 35 34 34 31 29 26 24 21 20 20 20 20 20 22 23 24 26 28 29 29 31 32 34 35 38 42 45 48 49 51 49 49 50 50 51
13 13 14 15 14 15 18 19 20 22 23 24 26 27 28 29 31 31 29 28 28 27 26 22 21 20 21 22 21 21 20 22 24 25 27 28 30 30 30 31 34 34 36 38 41 42 44 48 50 52 53 52 53 54
10 9 9 10 12 15 16 17 18 19 19 20 21 22 23 24 26 29 27 25 23 22 23 24 23 22 22 23 22 21 22 23 23 23 24 27 30 31 32 32 35 36 38 39 41 42 42 43 47 51 52 54 55 55
Wind_Direction
180 182 186 188 186 188 194 197 199 201 203 201 201 200 189 195 204 205 211 199 183 177 181 191 187 187 191 194 190 196 214 211 208 213 219 221 220 217 222 229 223 223 225 225 230 233 245 253 257 263 267 270 271 274
171 171 177 182 187 192 198 199 190 193 194 191 191 183 178 174 173 196 178 167 167 177 169 173 175 176 179 179 184 197 196 202 206 212 218 219 210 215 222 220 222 226 228 236 242 246 251 257 263 268 273 275 277 277
171 174 179 183 188 187 184 181 179 179 185 184 184 183 174 171 166 160 161 168 164 159 161 163 164 163 165 173 180 188 196 199 205 212 215 213 207 214 217 223 227 233 232 239 244 253 260 265 270 273 277 280 285 288
173 178 181 176 151 162 163 163 176 176 177 175 179 168 162 160 160 160 160 155 154 154 153 154 158 166 172 177 180 187 194 200 206 207 206 205 206 215 217 221 229 236 238 244 252 258 263 267 272 276 285 288 291 290
174 167 164 153 146 153 154 160 160 166 167 173 179 166 159 159 154 152 149 150 149 153 155 161 162 166 170 178 183 189 196 188 195 203 201 205 209 214 221 224 234 239 244 250 256 262 267 272 276 284 289 292 289 291
159 163 169 159 157 158 158 162 163 165 167 177 164 159 154 150 152 151 151 150 153 156 158 160 166 169 173 177 177 181 192 190 196 201 201 207 207 214 222 228 233 241 247 252 259 265 269 276 281 286 291 285 294 291
166 169 169 164 160 157 160 163 174 160 164 159 154 149 152 152 151 150 152 154 156 158 164 166 168 170 173 178 179 184 191 195 195 199 205 211 218 221 227 234 240 248 254 259 265 268 272 278 281 287 282 290 288 286
170 171 160 160 157 162 162 165 156 158 156 152 151 156 154 153 153 155 155 162 165 163 161 164 170 170 176 181 184 188 190 194 201 207 212 217 224 231 237 243 249 253 257 260 263 268 272 278 280 280 273 284 284 283
171 163 169 155 158 160 163 163 163 155 153 155 157 155 154 156 158 159 162 162 163 165 164 162 167 176 179 184 189 193 198 205 211 217 224 230 235 241 246 249 253 256 261 264 267 270 274 273 277 266 273 277 276 280
165 165 154 156 157 159 163 158 155 156 158 160 158 156 159 160 159 159 162 166 166 168 171 176 175 178 186 193 195 202 207 214 223 230 236 241 245 249 253 257 259 262 264 266 267 268 270 271 260 266 269 268 270 233
163 159 157 157 158 163 155 155 157 158 158 155 157 160 159 159 159 165 167 168 171 173 176 176 182 188 193 197 204 210 217 225 234 238 243 248 253 258 263 265 267 267 268 268 267 266 264 259 261 262 264 266 265 226
158 164 158 155 155 154 156 157 157 155 157 161 161 161 163 164 166 168 170 173 173 176 179 183 188 195 204 210 219 227 235 241 246 250 255 260 264 267 269 270 271 271 268 264 260 256 255 254 257 258 258 260 262 225
158 153 154 152 153 158 159 157 155 159 163 160 160 163 164 165 167 174 178 178 180 186 190 193 200 207 216 226 234 239 245 250 257 262 268 273 276 276 275 274 274 273 246 237 257 256 255 254 253 251 253 257 227 226
154 151 153 155 159 156 151 155 160 161 160 159 161 164 167 171 178 180 182 184 191 194 197 202 211 219 225 232 240 248 256 264 269 276 280 282 282 287 289 332 335 206 192 192 196 199 205 212 213 218 221 219 220 223
154 156 154 156 153 154 157 161 160 161 162 164 168 172 175 177 180 183 189 195 199 201 207 212 216 225 235 245 254 263 269 274 280 284 288 294 298 302 305 324 18 66 127 159 172 181 191 195 195 209 213 207 215 223
157 156 155 154 158 161 162 162 163 165 168 171 173 175 180 183 185 191 196 200 207 212 215 222 228 238 249 257 263 271 275 281 286 293 300 302 300 296 307 321 1 84 138 159 171 180 184 188 193 205 211 211 212 221
158 159 157 159 163 165 165 167 168 170 174 177 179 182 183 185 188 195 199 203 210 218 224 231 245 252 255 261 267 274 282 288 303 304 294 295 306 290 282 294 291 142 162 174 184 191 192 188 198 206 212 214 214 218
162 162 163 164 166 167 168 170 172 176 180 180 180 181 185 188 194 200 204 212 219 227 235 240 243 248 255 264 273 284 287 304 305 280 275 286 298 304 280 257 232 225 190 183 191 198 203 199 203 207 212 216 215 219
167 167 168 169 169 170 172 174 177 181 180 181 185 188 192 196 200 204 209 217 222 226 231 237 245 254 262 270 281 287 302 305 316 264 267 272 286 298 193 162 151 154 170 199 207 211 210 212 213 216 214 219 213 221
172 171 172 173 174 177 180 181 182 182 183 188 194 196 200 204 208 212 217 222 227 232 238 246 253 260 268 276 286 294 303 312 276 243 242 247 238 206 198 191 161 157 158 151 145 168 199 212 219 212 220 210 220 227
177 177 177 179 181 183 185 186 187 189 191 196 200 204 209 214 218 222 225 230 237 242 248 254 259 265 273 280 289 298 304 318 300 253 232 215 227 210 209 213 193 181 174 164 159 157 155 149 150 163 176 185 192 202
183 184 183 183 187 190 192 194 196 198 200 203 206 211 216 220 225 229 233 238 244 249 255 260 265 270 275 282 291 295 305 314 323 279 262 219 218 213 210 212 206 190 177 177 176 174 174 175 179 187 196 205 225 234
187 190 192 193 193 194 197 200 203 205 208 211 215 219 222 227 231 235 240 243 248 253 258 264 268 273 276 284 289 295 302 310 315 289 259 216 227 211 214 214 203 190 188 189 192 194 195 203 209 216 220 230 240 244
194 194 196 200 201 202 203 206 210 214 216 219 223 226 230 233 237 241 245 249 253 257 261 265 269 273 277 281 289 293 298 304 306 304 271 235 229 220 215 212 200 198 201 203 208 211 216 220 225 232 234 240 250 257
202 205 205 207 207 210 213 215 217 221 226 228 231 233 235 238 242 245 249 253 257 260 263 266 270 274 279 283 286 292 294 296 295 290 286 255 235 226 223 218 208 208 218 216 228 223 226 230 237 244 247 252 255 263
212 210 211 215 217 219 221 222 224 227 229 232 235 239 241 244 246 249 251 254 258 261 264 268 272 275 278 282 283 287 287 287 287 283 278 259 246 238 230 226 217 219 225 224 229 233 235 237 241 248 252 257 263 267
217 218 218 215 222 223 227 227 230 230 230 232 235 239 242 245 247 251 253 255 258 261 265 268 271 274 276 278 282 281 280 281 281 278 273 262 247 238 241 233 228 224 229 233 235 237 239 244 245 249 256 261 266 273
218 223 226 217 220 220 227 230 232 230 232 236 239 241 243 245 248 252 255 258 260 263 266 268 270 272 274 275 275 276 276 275 273 268 262 252 245 239 237 242 245 232 232 235 237 241 244 246 249 253 258 263 268 273
222 224 226 233 234 230 232 232 234 236 239 241 244 245 247 250 253 256 259 261 264 265 267 269 271 271 272 274 275 275 269 260 253 249 246 244 241 241 240 241 247 249 240 236 241 243 245 248 254 257 263 269 275 278
227 227 230 232 235 237 240 242 243 243 245 246 248 249 251 252 254 257 260 261 263 265 266 268 270 272 274 270 264 259 255 251 247 245 247 243 238 241 244 244 244 248 249 247 247 246 251 253 254 260 266 270 274 278
214 217 221 226 231 233 235 237 238 240 241 243 245 246 248 249 251 253 256 258 260 263 266 268 268 264 257 254 254 253 255 255 252 251 250 248 243 245 246 245 246 247 248 249 250 253 254 256 257 261 266 271 276 280
214 215 215 221 224 223 229 230 231 234 237 239 241 243 244 245 249 251 253 253 254 255 258 254 248 247 247 249 252 255 260 265 261 255 252 250 247 247 248 246 248 250 250 252 254 257 259 259 261 263 267 273 278 282
240 239 245 247 243 238 235 233 234 236 236 237 238 241 243 245 248 252 253 254 256 252 242 239 241 243 246 250 253 258 261 264 267 264 258 252 251 250 250 249 250 252 253 256 258 261 264 266 266 268 271 274 278 283